WAT462 KFLL-KDAB

Flight info

Callsign WAT462
Flight time 1h 9m
Altitude 8000
Route SHANC T208 SMYRA
Aircraft AEST/L-SDFGRY/S

Departure

Time 2026-04-26 15:35
Airport Fort Lauderdale Hollywood International Airport (KFLL)

Arrival

Time 2026-04-26 16:45
Airport Daytona Beach International Airport (KDAB)
Time Latitude Longitude Altitude Speed Heading
2026-04-26 15:27 26.06945 -80.15493 11 ft 0 kts 45°
2026-04-26 15:31 26.06946 -80.15491 11 ft 2 kts 46°
2026-04-26 15:31 26.06863 -80.15537 11 ft 15 kts 227°
2026-04-26 15:31 26.06788 -80.15625 11 ft 16 kts 243°
2026-04-26 15:32 26.06739 -80.15770 11 ft 12 kts 176°
2026-04-26 15:32 26.06680 -80.15811 11 ft 0 kts 214°
2026-04-26 15:34 26.06679 -80.15812 11 ft 2 kts 214°
2026-04-26 15:34 26.06620 -80.15819 12 ft 13 kts 176°
2026-04-26 15:34 26.06590 -80.15779 14 ft 11 kts 90°
2026-04-26 15:34 26.06587 -80.15440 16 ft 80 kts 91°
2026-04-26 15:35 26.06573 -80.14682 59 ft 109 kts 92°
2026-04-26 15:35 26.06556 -80.13737 203 ft 134 kts 91°
2026-04-26 15:35 26.06739 -80.12637 457 ft 146 kts 78°
2026-04-26 15:35 26.07039 -80.11479 686 ft 161 kts 74°
2026-04-26 15:36 26.07379 -80.10264 996 ft 167 kts 74°
2026-04-26 15:36 26.07729 -80.09023 1329 ft 168 kts 74°
2026-04-26 15:36 26.08079 -80.07794 1732 ft 165 kts 74°
2026-04-26 15:36 26.08450 -80.06599 2070 ft 167 kts 63°
2026-04-26 15:37 26.09287 -80.05705 2415 ft 167 kts 36°
2026-04-26 15:37 26.10076 -80.04803 2794 ft 165 kts 57°
2026-04-26 15:37 26.10975 -80.04038 3110 ft 167 kts 18°
2026-04-26 15:37 26.12117 -80.04055 3430 ft 167 kts 339°
2026-04-26 15:38 26.13017 -80.04817 3776 ft 163 kts 301°
2026-04-26 15:38 26.13326 -80.05990 4101 ft 157 kts 267°
2026-04-26 15:38 26.13296 -80.07188 4427 ft 154 kts 270°
2026-04-26 15:38 26.13553 -80.08343 4686 ft 156 kts 294°
2026-04-26 15:39 26.14206 -80.09316 4934 ft 160 kts 314°
2026-04-26 15:39 26.15010 -80.10170 5214 ft 160 kts 313°
2026-04-26 15:39 26.15776 -80.11066 5491 ft 160 kts 309°
2026-04-26 15:39 26.16261 -80.11706 5669 ft 160 kts 307°
2026-04-26 15:40 26.17156 -80.13002 6005 ft 159 kts 304°
2026-04-26 15:40 26.17811 -80.13994 6250 ft 159 kts 304°
2026-04-26 15:40 26.18467 -80.14985 6485 ft 159 kts 304°
2026-04-26 15:40 26.19128 -80.15968 6715 ft 158 kts 305°
2026-04-26 15:41 26.19802 -80.16936 6939 ft 158 kts 306°
2026-04-26 15:41 26.20483 -80.17893 7155 ft 157 kts 307°
2026-04-26 15:41 26.21167 -80.18844 7367 ft 157 kts 307°
2026-04-26 15:41 26.21847 -80.19790 7571 ft 156 kts 307°
2026-04-26 15:42 26.22521 -80.20734 7769 ft 155 kts 306°
2026-04-26 15:42 26.23190 -80.21673 7965 ft 154 kts 306°
2026-04-26 15:42 26.23865 -80.22625 8052 ft 161 kts 306°
2026-04-26 15:42 26.24582 -80.23648 8015 ft 173 kts 306°
2026-04-26 15:43 26.25334 -80.24722 7994 ft 179 kts 306°
2026-04-26 15:43 26.26111 -80.25826 7994 ft 183 kts 307°
2026-04-26 15:43 26.27710 -80.28089 7997 ft 189 kts 306°
2026-04-26 15:44 26.28526 -80.29244 7995 ft 191 kts 306°
2026-04-26 15:44 26.30186 -80.31590 7993 ft 196 kts 306°
2026-04-26 15:44 26.31031 -80.32791 7997 ft 198 kts 307°
2026-04-26 15:45 26.33219 -80.34597 7986 ft 201 kts 346°
2026-04-26 15:45 26.34604 -80.34557 8007 ft 202 kts 13°
2026-04-26 15:46 26.37390 -80.34621 8001 ft 204 kts 336°
2026-04-26 15:46 26.38613 -80.35376 7988 ft 204 kts 329°
2026-04-26 15:46 26.39928 -80.35961 7999 ft 204 kts 346°
2026-04-26 15:46 26.40868 -80.36164 8016 ft 204 kts 347°
2026-04-26 15:47 26.42701 -80.36664 8007 ft 206 kts 342°
2026-04-26 15:47 26.45435 -80.37608 8005 ft 206 kts 341°
2026-04-26 15:47 26.46805 -80.38080 8008 ft 206 kts 340°
2026-04-26 15:48 26.48132 -80.38679 8003 ft 206 kts 338°
2026-04-26 15:48 26.49520 -80.39066 7999 ft 206 kts 351°
2026-04-26 15:48 26.50955 -80.39143 8011 ft 207 kts 359°
2026-04-26 15:48 26.52397 -80.39089 8009 ft 208 kts
2026-04-26 15:49 26.53845 -80.39068 8006 ft 208 kts 358°
2026-04-26 15:49 26.55293 -80.39093 8005 ft 208 kts 357°
2026-04-26 15:49 26.56745 -80.39127 8006 ft 208 kts 357°
2026-04-26 15:49 26.58195 -80.39174 8006 ft 208 kts 356°
2026-04-26 15:50 26.59642 -80.39246 8003 ft 208 kts 355°
2026-04-26 15:50 26.61092 -80.39346 7997 ft 209 kts 354°
2026-04-26 15:50 26.62544 -80.39462 7994 ft 209 kts 354°
2026-04-26 15:50 26.63991 -80.39587 7995 ft 208 kts 354°
2026-04-26 15:51 26.65435 -80.39712 7996 ft 208 kts 354°
2026-04-26 15:51 26.66881 -80.39832 7996 ft 208 kts 354°
2026-04-26 15:51 26.68325 -80.39945 7997 ft 208 kts 354°
2026-04-26 15:51 26.69771 -80.40051 7998 ft 208 kts 354°
2026-04-26 15:52 26.71217 -80.40152 7998 ft 209 kts 355°
2026-04-26 15:52 26.72668 -80.40251 7994 ft 209 kts 355°
2026-04-26 15:52 26.74092 -80.40412 7997 ft 208 kts 349°
2026-04-26 15:52 26.75045 -80.40650 7995 ft 208 kts 342°
2026-04-26 15:53 26.76825 -80.41424 7996 ft 207 kts 332°
2026-04-26 15:53 26.78094 -80.42213 7995 ft 206 kts 326°
2026-04-26 15:53 26.79277 -80.43075 7995 ft 205 kts 323°
2026-04-26 15:53 26.80457 -80.43981 7988 ft 206 kts 323°
2026-04-26 15:54 26.81650 -80.44860 7994 ft 206 kts 325°
2026-04-26 15:54 26.82884 -80.45667 7995 ft 206 kts 329°
2026-04-26 15:54 26.84167 -80.46379 7991 ft 206 kts 333°
2026-04-26 15:54 26.85482 -80.47016 7993 ft 205 kts 335°
2026-04-26 15:55 26.86808 -80.47606 7993 ft 205 kts 336°
2026-04-26 15:55 26.88140 -80.48189 7992 ft 205 kts 336°
2026-04-26 15:55 26.89463 -80.48781 7993 ft 205 kts 335°
2026-04-26 15:55 26.90770 -80.49416 7994 ft 205 kts 333°
2026-04-26 15:56 26.92061 -80.50090 7991 ft 205 kts 332°
2026-04-26 15:56 26.93342 -80.50787 7984 ft 205 kts 332°
2026-04-26 15:56 26.94618 -80.51496 7984 ft 204 kts 331°
2026-04-26 15:56 26.95892 -80.52205 7983 ft 204 kts 332°
2026-04-26 15:57 26.97169 -80.52903 7989 ft 205 kts 332°
2026-04-26 15:57 26.98456 -80.53588 7987 ft 205 kts 333°
2026-04-26 15:57 26.99754 -80.54255 7981 ft 205 kts 334°
2026-04-26 15:57 27.00627 -80.54656 7979 ft 205 kts 338°
2026-04-26 15:58 27.02483 -80.55123 7980 ft 206 kts 353°
2026-04-26 15:58 27.03914 -80.55090 7987 ft 207 kts
2026-04-26 15:58 27.05336 -80.54815 7986 ft 208 kts 11°
2026-04-26 15:58 27.06743 -80.54421 7986 ft 209 kts 13°
2026-04-26 15:59 27.08149 -80.54012 7986 ft 209 kts 11°
2026-04-26 15:59 27.09576 -80.53677 7985 ft 210 kts
2026-04-26 15:59 27.11020 -80.53451 7987 ft 209 kts
2026-04-26 15:59 27.12474 -80.53329 7987 ft 209 kts
2026-04-26 16:00 27.13927 -80.53285 7987 ft 209 kts 358°
2026-04-26 16:00 27.15382 -80.53282 7985 ft 209 kts 358°
2026-04-26 16:00 27.16835 -80.53286 7986 ft 209 kts 358°
2026-04-26 16:00 27.18291 -80.53277 7983 ft 209 kts 359°
2026-04-26 16:01 27.19745 -80.53221 7984 ft 209 kts
2026-04-26 16:01 27.21199 -80.53124 7981 ft 210 kts
2026-04-26 16:01 27.22634 -80.53007 7983 ft 210 kts
2026-04-26 16:01 27.24107 -80.52876 7986 ft 210 kts
2026-04-26 16:02 27.25562 -80.52746 7985 ft 210 kts
2026-04-26 16:02 27.27020 -80.52627 7986 ft 210 kts
2026-04-26 16:02 27.28478 -80.52524 7978 ft 210 kts
2026-04-26 16:02 27.29445 -80.52462 7974 ft 211 kts
2026-04-26 16:03 27.31406 -80.52349 7977 ft 211 kts
2026-04-26 16:03 27.32868 -80.52267 7973 ft 211 kts
2026-04-26 16:03 27.34312 -80.52184 7974 ft 210 kts
2026-04-26 16:03 27.35792 -80.52092 7972 ft 210 kts
2026-04-26 16:04 27.37250 -80.51998 7978 ft 210 kts
2026-04-26 16:04 27.38710 -80.51897 7975 ft 211 kts
2026-04-26 16:04 27.40171 -80.51793 7981 ft 210 kts
2026-04-26 16:04 27.41632 -80.51692 7984 ft 210 kts
2026-04-26 16:05 27.43091 -80.51595 7985 ft 210 kts
2026-04-26 16:05 27.44534 -80.51503 7985 ft 210 kts
2026-04-26 16:05 27.45997 -80.51410 7985 ft 211 kts
2026-04-26 16:05 27.47460 -80.51319 7984 ft 211 kts
2026-04-26 16:06 27.48924 -80.51227 7985 ft 211 kts
2026-04-26 16:06 27.50387 -80.51133 7985 ft 211 kts
2026-04-26 16:06 27.51853 -80.51037 7984 ft 211 kts
2026-04-26 16:06 27.53315 -80.50940 7985 ft 211 kts
2026-04-26 16:07 27.54782 -80.50843 7986 ft 211 kts
2026-04-26 16:07 27.56248 -80.50746 7987 ft 211 kts
2026-04-26 16:07 27.57219 -80.50682 7988 ft 211 kts
2026-04-26 16:07 27.59186 -80.50552 7988 ft 212 kts
2026-04-26 16:08 27.60162 -80.50485 7983 ft 213 kts
2026-04-26 16:08 27.61628 -80.50283 7967 ft 213 kts 12°
2026-04-26 16:08 27.63027 -80.49735 7999 ft 213 kts 16°
2026-04-26 16:08 27.64467 -80.49341 7985 ft 214 kts
2026-04-26 16:09 27.65943 -80.49218 7987 ft 212 kts 357°
2026-04-26 16:09 27.67414 -80.49294 7991 ft 211 kts 352°
2026-04-26 16:09 27.68877 -80.49470 7984 ft 211 kts 349°
2026-04-26 16:09 27.70321 -80.49754 7990 ft 210 kts 343°
2026-04-26 16:10 27.71712 -80.50256 7986 ft 209 kts 335°
2026-04-26 16:10 27.73032 -80.50943 7978 ft 209 kts 329°
2026-04-26 16:10 27.74301 -80.51722 7973 ft 207 kts 327°
2026-04-26 16:10 27.75552 -80.52521 7973 ft 206 kts 328°
2026-04-26 16:11 27.76825 -80.53268 7971 ft 206 kts 330°
2026-04-26 16:11 27.78119 -80.53957 7981 ft 206 kts 332°
2026-04-26 16:11 27.79428 -80.54617 7980 ft 206 kts 333°
2026-04-26 16:11 27.80752 -80.55230 7976 ft 206 kts 336°
2026-04-26 16:12 27.82118 -80.55735 7970 ft 207 kts 341°
2026-04-26 16:12 27.83524 -80.56092 7982 ft 207 kts 347°
2026-04-26 16:12 27.86391 -80.56477 7995 ft 208 kts 352°
2026-04-26 16:13 27.87839 -80.56600 7986 ft 209 kts 353°
2026-04-26 16:13 27.89284 -80.56758 7986 ft 209 kts 346°
2026-04-26 16:13 27.90693 -80.57124 7984 ft 207 kts 344°
2026-04-26 16:13 27.92104 -80.57456 7975 ft 207 kts 346°
2026-04-26 16:14 27.93520 -80.57768 7979 ft 207 kts 345°
2026-04-26 16:14 27.94930 -80.58109 7972 ft 207 kts 343°
2026-04-26 16:14 27.97695 -80.58973 7974 ft 206 kts 339°
2026-04-26 16:15 27.99058 -80.59469 7972 ft 205 kts 338°
2026-04-26 16:15 28.00412 -80.59980 7975 ft 205 kts 338°
2026-04-26 16:15 28.01766 -80.60494 7973 ft 205 kts 338°
2026-04-26 16:16 28.04475 -80.61491 7978 ft 204 kts 339°
2026-04-26 16:16 28.05831 -80.61967 7983 ft 204 kts 339°
2026-04-26 16:16 28.07193 -80.62433 7986 ft 204 kts 340°
2026-04-26 16:16 28.08553 -80.62889 7989 ft 204 kts 340°
2026-04-26 16:17 28.09915 -80.63356 7985 ft 205 kts 339°
2026-04-26 16:17 28.11270 -80.63855 7979 ft 205 kts 338°
2026-04-26 16:17 28.12612 -80.64379 7984 ft 204 kts 337°
2026-04-26 16:17 28.13949 -80.64919 7987 ft 204 kts 336°
2026-04-26 16:18 28.15282 -80.65466 7979 ft 204 kts 336°
2026-04-26 16:18 28.17944 -80.66552 7971 ft 202 kts 337°
2026-04-26 16:19 28.20605 -80.67609 7927 ft 203 kts 337°
2026-04-26 16:19 28.21933 -80.68132 7936 ft 201 kts 338°
2026-04-26 16:19 28.24536 -80.69135 8145 ft 189 kts 338°
2026-04-26 16:20 28.25754 -80.69597 8358 ft 179 kts 338°
2026-04-26 16:20 28.28001 -80.70454 8781 ft 164 kts 337°
2026-04-26 16:20 28.29071 -80.70867 8945 ft 161 kts 336°
2026-04-26 16:21 28.30116 -80.71280 9102 ft 158 kts 336°
2026-04-26 16:21 28.31150 -80.71693 9254 ft 156 kts 336°
2026-04-26 16:21 28.32167 -80.72100 9393 ft 154 kts 336°
2026-04-26 16:21 28.33177 -80.72503 9538 ft 153 kts 336°
2026-04-26 16:22 28.34180 -80.72900 9681 ft 153 kts 336°
2026-04-26 16:22 28.35182 -80.73292 9809 ft 152 kts 336°
2026-04-26 16:22 28.36180 -80.73681 9947 ft 151 kts 336°
2026-04-26 16:22 28.37184 -80.74075 10009 ft 156 kts 336°
2026-04-26 16:23 28.38251 -80.74503 9941 ft 168 kts 336°
2026-04-26 16:23 28.39375 -80.74956 9927 ft 174 kts 336°
2026-04-26 16:23 28.40532 -80.75417 9948 ft 178 kts 337°
2026-04-26 16:23 28.41718 -80.75888 9961 ft 181 kts 337°
2026-04-26 16:24 28.42917 -80.76357 9992 ft 184 kts 337°
2026-04-26 16:24 28.44139 -80.76830 9990 ft 187 kts 338°
2026-04-26 16:24 28.45378 -80.77310 9985 ft 189 kts 338°
2026-04-26 16:24 28.46628 -80.77794 9985 ft 191 kts 337°
2026-04-26 16:25 28.47886 -80.78286 9996 ft 191 kts 337°
2026-04-26 16:25 28.49146 -80.78785 9992 ft 192 kts 337°
2026-04-26 16:25 28.50407 -80.79289 9992 ft 192 kts 337°
2026-04-26 16:25 28.51669 -80.79793 10000 ft 193 kts 337°
2026-04-26 16:26 28.52936 -80.80302 9990 ft 193 kts 337°
2026-04-26 16:26 28.53774 -80.80639 9991 ft 193 kts 337°
2026-04-26 16:26 28.55467 -80.81317 9985 ft 193 kts 337°
2026-04-26 16:26 28.56737 -80.81824 9976 ft 194 kts 337°
2026-04-26 16:27 28.58015 -80.82334 9975 ft 195 kts 337°
2026-04-26 16:27 28.59293 -80.82843 9969 ft 195 kts 337°
2026-04-26 16:27 28.60571 -80.83353 9963 ft 195 kts 337°
2026-04-26 16:27 28.61848 -80.83862 9967 ft 195 kts 337°
2026-04-26 16:28 28.63127 -80.84373 9966 ft 195 kts 337°
2026-04-26 16:28 28.64388 -80.84877 9962 ft 195 kts 337°
2026-04-26 16:28 28.65662 -80.85387 9964 ft 194 kts 337°
2026-04-26 16:28 28.66931 -80.85894 9964 ft 193 kts 337°
2026-04-26 16:29 28.68197 -80.86401 9959 ft 193 kts 337°
2026-04-26 16:29 28.69459 -80.86906 9969 ft 192 kts 337°
2026-04-26 16:29 28.70727 -80.87413 9969 ft 194 kts 337°
2026-04-26 16:29 28.72002 -80.87920 9969 ft 195 kts 337°
2026-04-26 16:30 28.73291 -80.88428 9969 ft 196 kts 337°
2026-04-26 16:30 28.74589 -80.88940 9952 ft 198 kts 337°
2026-04-26 16:30 28.75886 -80.89453 9969 ft 197 kts 337°
2026-04-26 16:30 28.77179 -80.89967 9981 ft 197 kts 337°
2026-04-26 16:31 28.78479 -80.90484 9982 ft 198 kts 337°
2026-04-26 16:31 28.79764 -80.90994 10059 ft 194 kts 337°
2026-04-26 16:31 28.81043 -80.91501 10045 ft 196 kts 337°
2026-04-26 16:31 28.82334 -80.92015 10033 ft 197 kts 337°
2026-04-26 16:32 28.83624 -80.92529 10039 ft 197 kts 337°
2026-04-26 16:32 28.84480 -80.92870 10037 ft 197 kts 337°
2026-04-26 16:32 28.86208 -80.93556 10035 ft 197 kts 337°
2026-04-26 16:32 28.87503 -80.94073 10037 ft 197 kts 337°
2026-04-26 16:33 28.88796 -80.94591 10035 ft 197 kts 337°
2026-04-26 16:33 28.90091 -80.95110 10037 ft 197 kts 337°
2026-04-26 16:33 28.91385 -80.95629 10038 ft 197 kts 337°
2026-04-26 16:33 28.92681 -80.96147 10040 ft 197 kts 337°
2026-04-26 16:34 28.93975 -80.96664 10048 ft 197 kts 337°
2026-04-26 16:34 28.95287 -80.97190 9907 ft 205 kts 337°
2026-04-26 16:34 28.96667 -80.97746 9644 ft 215 kts 337°
2026-04-26 16:34 28.98100 -80.98322 9359 ft 221 kts 338°
2026-04-26 16:35 28.99560 -80.98909 9068 ft 225 kts 338°
2026-04-26 16:35 29.01046 -80.99506 8785 ft 227 kts 338°
2026-04-26 16:35 29.02550 -81.00085 8503 ft 229 kts 339°
2026-04-26 16:35 29.04072 -81.00642 8222 ft 230 kts 340°
2026-04-26 16:36 29.05603 -81.01195 7964 ft 231 kts 340°
2026-04-26 16:36 29.07133 -81.01743 7714 ft 231 kts 342°
2026-04-26 16:36 29.08737 -81.01791 7389 ft 234 kts 10°
2026-04-26 16:36 29.10206 -81.01003 7059 ft 236 kts 37°
2026-04-26 16:37 29.11314 -80.99623 6756 ft 236 kts 51°
2026-04-26 16:37 29.12309 -80.98121 6419 ft 238 kts 52°
2026-04-26 16:37 29.13305 -80.96593 5941 ft 244 kts 52°
2026-04-26 16:37 29.13987 -80.95545 5493 ft 251 kts 52°
2026-04-26 16:38 29.15410 -80.93367 4518 ft 256 kts 52°
2026-04-26 16:38 29.16447 -80.91784 3833 ft 244 kts 52°
2026-04-26 16:38 29.17436 -80.90279 3262 ft 233 kts 52°
2026-04-26 16:38 29.18364 -80.88872 3045 ft 209 kts 52°
2026-04-26 16:39 29.19206 -80.87597 2990 ft 197 kts 52°
2026-04-26 16:39 29.20203 -80.86590 3030 ft 190 kts 24°
2026-04-26 16:39 29.21506 -80.86310 2825 ft 195 kts 352°
2026-04-26 16:39 29.22774 -80.86824 2661 ft 195 kts 327°
2026-04-26 16:40 29.23929 -80.87652 2467 ft 197 kts 324°
2026-04-26 16:40 29.24933 -80.88718 2275 ft 200 kts 299°
2026-04-26 16:40 29.25310 -80.90143 2076 ft 179 kts 269°
2026-04-26 16:40 29.24993 -80.91433 1819 ft 164 kts 236°
2026-04-26 16:41 29.24172 -80.92267 1537 ft 155 kts 214°
2026-04-26 16:41 29.23288 -80.92926 1236 ft 151 kts 210°
2026-04-26 16:41 29.22470 -80.93598 1082 ft 138 kts 232°
2026-04-26 16:41 29.22039 -80.94533 1054 ft 127 kts 245°
2026-04-26 16:42 29.21677 -80.95461 1002 ft 126 kts 245°
2026-04-26 16:42 29.21300 -80.96345 985 ft 124 kts 240°
2026-04-26 16:42 29.20914 -80.97227 893 ft 121 kts 243°
2026-04-26 16:42 29.20592 -80.98065 928 ft 111 kts 246°
2026-04-26 16:43 29.20326 -80.98888 1019 ft 111 kts 248°
2026-04-26 16:43 29.20041 -80.99728 958 ft 113 kts 247°
2026-04-26 16:43 29.19753 -81.00539 888 ft 107 kts 244°
2026-04-26 16:43 29.19431 -81.01300 772 ft 104 kts 242°
2026-04-26 16:44 29.19104 -81.02011 629 ft 100 kts 241°
2026-04-26 16:44 29.18800 -81.02723 452 ft 96 kts 245°
2026-04-26 16:44 29.18537 -81.03413 320 ft 93 kts 244°
2026-04-26 16:44 29.18255 -81.04087 190 ft 93 kts 244°
2026-04-26 16:45 29.17985 -81.04746 46 ft 88 kts 244°
2026-04-26 16:45 29.17781 -81.05251 35 ft 53 kts 246°
2026-04-26 16:45 29.17701 -81.05459 38 ft 14 kts 253°
2026-04-26 16:45 29.17731 -81.05504 39 ft 0 kts 348°
2026-04-26 16:46 29.17758 -81.05472 38 ft 17 kts 65°
2026-04-26 16:46 29.17827 -81.05305 35 ft 25 kts 65°
2026-04-26 16:46 29.17893 -81.05140 36 ft 22 kts 65°
2026-04-26 16:46 29.17955 -81.04989 35 ft 20 kts 65°
2026-04-26 16:47 29.17993 -81.04898 37 ft 11 kts 66°
2026-04-26 16:47 29.18047 -81.04903 39 ft 8 kts 316°
2026-04-26 16:47 29.18063 -81.04931 39 ft 0 kts 302°